Year,Month,Day,Hour,Minute,Value (Times are PST for temperature in C)
2021,07,05,00,00,18.00
2021,07,05,00,01,18.00
2021,07,05,00,02,17.90
2021,07,05,00,03,17.90
2021,07,05,00,04,17.90
2021,07,05,00,05,17.90
2021,07,05,00,06,17.90
2021,07,05,00,07,17.80
2021,07,05,00,08,17.80
2021,07,05,00,09,17.80
2021,07,05,00,10,17.80
2021,07,05,00,11,17.80
2021,07,05,00,12,17.80
2021,07,05,00,13,17.70
2021,07,05,00,14,17.70
2021,07,05,00,15,17.70
2021,07,05,00,16,17.70
2021,07,05,00,17,17.70
2021,07,05,00,18,17.60
2021,07,05,00,19,17.60
2021,07,05,00,20,17.60
2021,07,05,00,21,17.60
2021,07,05,00,22,17.60
2021,07,05,00,23,17.60
2021,07,05,00,24,17.50
2021,07,05,00,25,17.50
2021,07,05,00,26,17.50
2021,07,05,00,27,17.40
2021,07,05,00,28,17.40
2021,07,05,00,29,17.40
2021,07,05,00,30,17.40
2021,07,05,00,31,17.40
2021,07,05,00,32,17.30
2021,07,05,00,33,17.30
2021,07,05,00,34,17.30
2021,07,05,00,35,17.30
2021,07,05,00,36,17.30
2021,07,05,00,37,17.30
2021,07,05,00,38,17.30
2021,07,05,00,39,17.20
2021,07,05,00,40,17.20
2021,07,05,00,41,17.20
2021,07,05,00,42,17.20
2021,07,05,00,43,17.20
2021,07,05,00,44,17.20
2021,07,05,00,45,17.20
2021,07,05,00,46,17.20
2021,07,05,00,47,17.10
2021,07,05,00,48,17.10
2021,07,05,00,49,17.10
2021,07,05,00,50,17.00
2021,07,05,00,51,17.00
2021,07,05,00,52,16.90
2021,07,05,00,53,16.90
2021,07,05,00,54,16.90
2021,07,05,00,55,16.90
2021,07,05,00,56,16.80
2021,07,05,00,57,16.80
2021,07,05,00,58,16.80
2021,07,05,00,59,16.80
2021,07,05,01,00,16.80
2021,07,05,01,01,16.70
2021,07,05,01,02,16.70
2021,07,05,01,03,16.70
2021,07,05,01,04,16.70
2021,07,05,01,05,16.70
2021,07,05,01,06,16.70
2021,07,05,01,07,16.70
2021,07,05,01,08,16.70
2021,07,05,01,09,16.70
2021,07,05,01,10,16.60
2021,07,05,01,11,16.60
2021,07,05,01,12,16.60
2021,07,05,01,13,16.60
2021,07,05,01,14,16.60
2021,07,05,01,15,16.60
2021,07,05,01,16,16.60
2021,07,05,01,17,16.50
2021,07,05,01,18,16.50
2021,07,05,01,19,16.50
2021,07,05,01,20,16.50
2021,07,05,01,21,16.40
2021,07,05,01,22,16.40
2021,07,05,01,23,16.40
2021,07,05,01,24,16.40
2021,07,05,01,25,16.40
2021,07,05,01,26,16.40
2021,07,05,01,27,16.40
2021,07,05,01,28,16.40
2021,07,05,01,29,16.30
2021,07,05,01,30,16.30
2021,07,05,01,31,16.30
2021,07,05,01,32,16.30
2021,07,05,01,33,16.30
2021,07,05,01,34,16.20
2021,07,05,01,35,16.20
2021,07,05,01,36,16.20
2021,07,05,01,37,16.20
2021,07,05,01,38,16.20
2021,07,05,01,39,16.20
2021,07,05,01,40,16.10
2021,07,05,01,41,16.10
2021,07,05,01,42,16.10
2021,07,05,01,43,16.10
2021,07,05,01,44,16.10
2021,07,05,01,45,16.10
2021,07,05,01,46,16.00
2021,07,05,01,47,16.00
2021,07,05,01,48,16.00
2021,07,05,01,49,16.00
2021,07,05,01,50,16.00
2021,07,05,01,51,16.00
2021,07,05,01,52,16.00
2021,07,05,01,53,16.00
2021,07,05,01,54,16.00
2021,07,05,01,55,16.00
2021,07,05,01,56,16.00
2021,07,05,01,57,16.00
2021,07,05,01,58,16.00
2021,07,05,01,59,15.90
2021,07,05,02,00,16.00
2021,07,05,02,01,15.90
2021,07,05,02,02,15.90
2021,07,05,02,03,16.00
2021,07,05,02,04,15.90
2021,07,05,02,05,16.00
2021,07,05,02,06,16.00
2021,07,05,02,07,16.00
2021,07,05,02,08,16.00
2021,07,05,02,09,16.00
2021,07,05,02,10,16.00
2021,07,05,02,11,16.00
2021,07,05,02,12,16.00
2021,07,05,02,13,16.00
2021,07,05,02,14,16.00
2021,07,05,02,15,16.00
2021,07,05,02,16,16.00
2021,07,05,02,17,16.00
2021,07,05,02,18,16.00
2021,07,05,02,19,16.00
2021,07,05,02,20,16.00
2021,07,05,02,21,15.90
2021,07,05,02,22,15.90
2021,07,05,02,23,15.90
2021,07,05,02,24,15.90
2021,07,05,02,25,15.90
2021,07,05,02,26,15.90
2021,07,05,02,27,15.90
2021,07,05,02,28,15.90
2021,07,05,02,29,15.90
2021,07,05,02,30,15.90
2021,07,05,02,31,15.90
2021,07,05,02,32,15.90
2021,07,05,02,33,15.90
2021,07,05,02,34,15.90
2021,07,05,02,35,15.90
2021,07,05,02,36,15.90
2021,07,05,02,37,15.90
2021,07,05,02,38,15.90
2021,07,05,02,39,15.90
2021,07,05,02,40,15.90
2021,07,05,02,41,15.90
2021,07,05,02,42,15.80
2021,07,05,02,43,15.80
2021,07,05,02,44,15.80
2021,07,05,02,45,15.80
2021,07,05,02,46,15.70
2021,07,05,02,47,15.70
2021,07,05,02,48,15.70
2021,07,05,02,49,15.60
2021,07,05,02,50,15.60
2021,07,05,02,51,15.60
2021,07,05,02,52,15.50
2021,07,05,02,53,15.50
2021,07,05,02,54,15.50
2021,07,05,02,55,15.50
2021,07,05,02,56,15.50
2021,07,05,02,57,15.40
2021,07,05,02,58,15.40
2021,07,05,02,59,15.40
2021,07,05,03,00,15.40
2021,07,05,03,01,15.40
2021,07,05,03,02,15.40
2021,07,05,03,03,15.40
2021,07,05,03,04,15.40
2021,07,05,03,05,15.40
2021,07,05,03,06,15.40
2021,07,05,03,07,15.30
2021,07,05,03,08,15.30
2021,07,05,03,09,15.30
2021,07,05,03,10,15.30
2021,07,05,03,11,15.30
2021,07,05,03,12,15.30
2021,07,05,03,13,15.30
2021,07,05,03,14,15.30
2021,07,05,03,15,15.30
2021,07,05,03,16,15.30
2021,07,05,03,17,15.30
2021,07,05,03,18,15.30
2021,07,05,03,19,15.30
2021,07,05,03,20,15.30
2021,07,05,03,21,15.30
2021,07,05,03,22,15.30
2021,07,05,03,23,15.30
2021,07,05,03,24,15.30
2021,07,05,03,25,15.30
2021,07,05,03,26,15.30
2021,07,05,03,27,15.30
2021,07,05,03,28,15.30
2021,07,05,03,29,15.30
2021,07,05,03,30,15.30
2021,07,05,03,31,15.30
2021,07,05,03,32,15.30
2021,07,05,03,33,15.30
2021,07,05,03,34,15.30
2021,07,05,03,35,15.30
2021,07,05,03,36,15.30
2021,07,05,03,37,15.30
2021,07,05,03,38,15.30
2021,07,05,03,39,15.20
2021,07,05,03,40,15.20
2021,07,05,03,41,15.20
2021,07,05,03,42,15.20
2021,07,05,03,43,15.20
2021,07,05,03,44,15.20
2021,07,05,03,45,15.20
2021,07,05,03,46,15.20
2021,07,05,03,47,15.20
2021,07,05,03,48,15.20
2021,07,05,03,49,15.20
2021,07,05,03,50,15.20
2021,07,05,03,51,15.20
2021,07,05,03,52,15.20
2021,07,05,03,53,15.20
2021,07,05,03,54,15.20
2021,07,05,03,55,15.20
2021,07,05,03,56,15.30
2021,07,05,03,57,15.30
2021,07,05,03,58,15.30
2021,07,05,03,59,15.30
2021,07,05,04,00,15.30
2021,07,05,04,01,15.30
2021,07,05,04,02,15.30
2021,07,05,04,03,15.30
2021,07,05,04,04,15.30
2021,07,05,04,05,15.30
2021,07,05,04,06,15.20
2021,07,05,04,07,15.20
2021,07,05,04,08,15.30
2021,07,05,04,09,15.30
2021,07,05,04,10,15.20
2021,07,05,04,11,15.30
2021,07,05,04,12,15.30
2021,07,05,04,13,15.30
2021,07,05,04,14,15.30
2021,07,05,04,15,15.30
2021,07,05,04,16,15.30
2021,07,05,04,17,15.30
2021,07,05,04,18,15.30
2021,07,05,04,19,15.30
2021,07,05,04,20,15.30
2021,07,05,04,21,15.30
2021,07,05,04,22,15.30
2021,07,05,04,23,15.30
2021,07,05,04,24,15.30
2021,07,05,04,25,15.30
2021,07,05,04,26,15.30
2021,07,05,04,27,15.30
2021,07,05,04,28,15.20
2021,07,05,04,29,15.20
2021,07,05,04,30,15.20
2021,07,05,04,31,15.20
2021,07,05,04,32,15.20
2021,07,05,04,33,15.20
2021,07,05,04,34,15.20
2021,07,05,04,35,15.20
2021,07,05,04,36,15.20
2021,07,05,04,37,15.20
2021,07,05,04,38,15.20
2021,07,05,04,39,15.20
2021,07,05,04,40,15.20
2021,07,05,04,41,15.20
2021,07,05,04,42,15.20
2021,07,05,04,43,15.20
2021,07,05,04,44,15.20
2021,07,05,04,45,15.20
2021,07,05,04,46,15.20
2021,07,05,04,47,15.20
2021,07,05,04,48,15.20
2021,07,05,04,49,15.20
2021,07,05,04,50,15.20
2021,07,05,04,51,15.20
2021,07,05,04,52,15.20
2021,07,05,04,53,15.20
2021,07,05,04,54,15.20
2021,07,05,04,55,15.20
2021,07,05,04,56,15.20
2021,07,05,04,57,15.20
2021,07,05,04,58,15.20
2021,07,05,04,59,15.20
2021,07,05,05,00,15.20
2021,07,05,05,01,15.20
2021,07,05,05,02,15.10
2021,07,05,05,03,15.10
2021,07,05,05,04,15.10
2021,07,05,05,05,15.10
2021,07,05,05,06,15.10
2021,07,05,05,07,15.10
2021,07,05,05,08,15.10
2021,07,05,05,09,15.10
2021,07,05,05,10,15.10
2021,07,05,05,11,15.10
2021,07,05,05,12,15.10
2021,07,05,05,13,15.10
2021,07,05,05,14,15.00
2021,07,05,05,15,15.00
2021,07,05,05,16,15.00
2021,07,05,05,17,15.00
2021,07,05,05,18,15.00
2021,07,05,05,19,15.00
2021,07,05,05,20,15.00
2021,07,05,05,21,15.00
2021,07,05,05,22,15.00
2021,07,05,05,23,15.00
2021,07,05,05,24,14.90
2021,07,05,05,25,14.90
2021,07,05,05,26,14.90
2021,07,05,05,27,14.90
2021,07,05,05,28,14.90
2021,07,05,05,29,14.90
2021,07,05,05,30,14.90
2021,07,05,05,31,14.90
2021,07,05,05,32,14.90
2021,07,05,05,33,14.90
2021,07,05,05,34,14.90
2021,07,05,05,35,14.90
2021,07,05,05,36,14.90
2021,07,05,05,37,14.90
2021,07,05,05,38,14.90
2021,07,05,05,39,14.90
2021,07,05,05,40,14.90
2021,07,05,05,41,14.90
2021,07,05,05,42,14.90
2021,07,05,05,43,14.90
2021,07,05,05,44,14.90
2021,07,05,05,45,14.90
2021,07,05,05,46,14.90
2021,07,05,05,47,14.90
2021,07,05,05,48,14.90
2021,07,05,05,49,14.90
2021,07,05,05,50,14.90
2021,07,05,05,51,14.90
2021,07,05,05,52,14.90
2021,07,05,05,53,14.90
2021,07,05,05,54,14.90
2021,07,05,05,55,14.90
2021,07,05,05,56,14.90
2021,07,05,05,57,14.90
2021,07,05,05,58,14.90
2021,07,05,05,59,14.90
2021,07,05,06,00,14.90
2021,07,05,06,01,14.80
2021,07,05,06,02,14.80
2021,07,05,06,03,14.80
2021,07,05,06,04,14.80
2021,07,05,06,05,14.80
2021,07,05,06,06,14.80
2021,07,05,06,07,14.80
2021,07,05,06,08,14.80
2021,07,05,06,09,14.80
2021,07,05,06,10,14.80
2021,07,05,06,11,14.80
2021,07,05,06,12,14.80
2021,07,05,06,13,14.80
2021,07,05,06,14,14.80
2021,07,05,06,15,14.80
2021,07,05,06,16,14.80
2021,07,05,06,17,14.80
2021,07,05,06,18,14.80
2021,07,05,06,19,14.80
2021,07,05,06,20,14.80
2021,07,05,06,21,14.90
2021,07,05,06,22,14.90
2021,07,05,06,23,14.90
2021,07,05,06,24,14.90
2021,07,05,06,25,15.00
2021,07,05,06,26,15.00
2021,07,05,06,27,15.10
2021,07,05,06,28,15.20
2021,07,05,06,29,15.30
2021,07,05,06,30,15.30
2021,07,05,06,31,15.30
2021,07,05,06,32,15.40
2021,07,05,06,33,15.40
2021,07,05,06,34,15.40
2021,07,05,06,35,15.50
2021,07,05,06,36,15.50
2021,07,05,06,37,15.50
2021,07,05,06,38,15.60
2021,07,05,06,39,15.60
2021,07,05,06,40,15.60
2021,07,05,06,41,15.60
2021,07,05,06,42,15.60
2021,07,05,06,43,15.60
2021,07,05,06,44,15.60
2021,07,05,06,45,15.70
2021,07,05,06,46,15.70
2021,07,05,06,47,15.70
2021,07,05,06,48,15.70
2021,07,05,06,49,15.80
2021,07,05,06,50,15.80
2021,07,05,06,51,15.80
2021,07,05,06,52,15.80
2021,07,05,06,53,15.90
2021,07,05,06,54,15.90
2021,07,05,06,55,15.90
2021,07,05,06,56,15.90
2021,07,05,06,57,16.00
2021,07,05,06,58,16.00
2021,07,05,06,59,16.00
2021,07,05,07,00,16.10
2021,07,05,07,01,16.10
2021,07,05,07,02,16.20
2021,07,05,07,03,16.20
2021,07,05,07,04,16.30
2021,07,05,07,05,16.30
2021,07,05,07,06,16.30
2021,07,05,07,07,16.40
2021,07,05,07,08,16.40
2021,07,05,07,09,16.50
2021,07,05,07,10,16.50
2021,07,05,07,11,16.60
2021,07,05,07,12,16.70
2021,07,05,07,13,16.70
2021,07,05,07,14,16.80
2021,07,05,07,15,16.80
2021,07,05,07,16,16.90
2021,07,05,07,17,16.90
2021,07,05,07,18,17.00
2021,07,05,07,19,17.10
2021,07,05,07,20,17.10
2021,07,05,07,21,17.20
2021,07,05,07,22,17.20
2021,07,05,07,23,17.30
2021,07,05,07,24,17.40
2021,07,05,07,25,17.50
2021,07,05,07,26,17.50
2021,07,05,07,27,17.60
2021,07,05,07,28,17.70
2021,07,05,07,29,17.70
2021,07,05,07,30,17.70
2021,07,05,07,31,17.80
2021,07,05,07,32,17.80
2021,07,05,07,33,17.80
2021,07,05,07,34,17.80
2021,07,05,07,35,17.80
2021,07,05,07,36,17.80
2021,07,05,07,37,17.90
2021,07,05,07,38,17.90
2021,07,05,07,39,17.90
2021,07,05,07,40,17.90
2021,07,05,07,41,17.90
2021,07,05,07,42,17.80
2021,07,05,07,43,17.80
2021,07,05,07,44,17.80
2021,07,05,07,45,17.80
2021,07,05,07,46,17.80
2021,07,05,07,47,17.80
2021,07,05,07,48,17.80
2021,07,05,07,49,17.80
2021,07,05,07,50,17.80
2021,07,05,07,51,17.90
2021,07,05,07,52,17.90
2021,07,05,07,53,17.90
2021,07,05,07,54,18.00
2021,07,05,07,55,18.10
2021,07,05,07,56,18.10
2021,07,05,07,57,18.20
2021,07,05,07,58,18.30
2021,07,05,07,59,18.40
2021,07,05,08,00,18.50
2021,07,05,08,01,18.50
2021,07,05,08,02,18.60
2021,07,05,08,03,18.60
2021,07,05,08,04,18.60
2021,07,05,08,05,18.60
2021,07,05,08,06,18.70
2021,07,05,08,07,18.70
2021,07,05,08,08,18.80
2021,07,05,08,09,18.80
2021,07,05,08,10,18.90
2021,07,05,08,11,18.90
2021,07,05,08,12,18.90
2021,07,05,08,13,18.90
2021,07,05,08,14,18.80
2021,07,05,08,15,18.80
2021,07,05,08,16,18.80
2021,07,05,08,17,18.90
2021,07,05,08,18,18.90
2021,07,05,08,19,18.90
2021,07,05,08,20,18.90
2021,07,05,08,21,18.90
2021,07,05,08,22,18.80
2021,07,05,08,23,18.80
2021,07,05,08,24,18.80
2021,07,05,08,25,18.80
2021,07,05,08,26,18.70
2021,07,05,08,27,18.70
2021,07,05,08,28,18.70
2021,07,05,08,29,18.70
2021,07,05,08,30,18.70
2021,07,05,08,31,18.80
2021,07,05,08,32,18.90
2021,07,05,08,33,18.90
2021,07,05,08,34,18.90
2021,07,05,08,35,19.00
2021,07,05,08,36,19.00
2021,07,05,08,37,19.10
2021,07,05,08,38,19.10
2021,07,05,08,39,19.30
2021,07,05,08,40,19.30
2021,07,05,08,41,19.40
2021,07,05,08,42,19.40
2021,07,05,08,43,19.40
2021,07,05,08,44,19.40
2021,07,05,08,45,19.40
2021,07,05,08,46,19.40
2021,07,05,08,47,19.40
2021,07,05,08,48,19.30
2021,07,05,08,49,19.30
2021,07,05,08,50,19.40
2021,07,05,08,51,19.40
2021,07,05,08,52,19.40
2021,07,05,08,53,19.40
2021,07,05,08,54,19.40
2021,07,05,08,55,19.40
2021,07,05,08,56,19.40
2021,07,05,08,57,19.40
2021,07,05,08,58,19.40
2021,07,05,08,59,19.50
2021,07,05,09,00,19.60
2021,07,05,09,01,19.70
2021,07,05,09,02,19.80
2021,07,05,09,03,19.80
2021,07,05,09,04,19.80
2021,07,05,09,05,19.90
2021,07,05,09,06,19.90
2021,07,05,09,07,19.90
2021,07,05,09,08,19.90
2021,07,05,09,09,19.80
2021,07,05,09,10,19.80
2021,07,05,09,11,19.70
2021,07,05,09,12,19.70
2021,07,05,09,13,19.70
2021,07,05,09,14,19.80
2021,07,05,09,15,19.80
2021,07,05,09,16,19.80
2021,07,05,09,17,19.90
2021,07,05,09,18,20.00
2021,07,05,09,19,20.00
2021,07,05,09,20,20.10
2021,07,05,09,21,20.10
2021,07,05,09,22,20.10
2021,07,05,09,23,20.10
2021,07,05,09,24,20.10
2021,07,05,09,25,20.10
2021,07,05,09,26,20.00
2021,07,05,09,27,20.00
2021,07,05,09,28,20.00
2021,07,05,09,29,20.00
2021,07,05,09,30,20.10
2021,07,05,09,31,20.10
2021,07,05,09,32,20.10
2021,07,05,09,33,20.10
2021,07,05,09,34,20.20
2021,07,05,09,35,20.10
2021,07,05,09,36,20.10
2021,07,05,09,37,20.10
2021,07,05,09,38,20.20
2021,07,05,09,39,20.20
2021,07,05,09,40,20.30
2021,07,05,09,41,20.40
2021,07,05,09,42,20.40
2021,07,05,09,43,20.50
2021,07,05,09,44,20.60
2021,07,05,09,45,20.70
2021,07,05,09,46,20.80
2021,07,05,09,47,20.90
2021,07,05,09,48,21.10
2021,07,05,09,49,21.20
2021,07,05,09,50,21.30
2021,07,05,09,51,21.30
2021,07,05,09,52,21.30
2021,07,05,09,53,21.30
2021,07,05,09,54,21.30
2021,07,05,09,55,21.20
2021,07,05,09,56,21.10
2021,07,05,09,57,21.10
2021,07,05,09,58,21.00
2021,07,05,09,59,21.00
2021,07,05,10,00,20.90
2021,07,05,10,01,20.90
2021,07,05,10,02,20.90
2021,07,05,10,03,20.90
2021,07,05,10,04,20.90
2021,07,05,10,05,20.80
2021,07,05,10,06,20.80
2021,07,05,10,07,20.80
2021,07,05,10,08,20.90
2021,07,05,10,09,20.90
2021,07,05,10,10,21.00
2021,07,05,10,11,21.00
2021,07,05,10,12,21.10
2021,07,05,10,13,21.10
2021,07,05,10,14,21.20
2021,07,05,10,15,21.20
2021,07,05,10,16,21.20
2021,07,05,10,17,21.20
2021,07,05,10,18,21.30
2021,07,05,10,19,21.30
2021,07,05,10,20,21.40
2021,07,05,10,21,21.40
2021,07,05,10,22,21.40
2021,07,05,10,23,21.40
2021,07,05,10,24,21.40
2021,07,05,10,25,21.40
2021,07,05,10,26,21.40
2021,07,05,10,27,21.40
2021,07,05,10,28,21.40
2021,07,05,10,29,21.40
2021,07,05,10,30,21.50
2021,07,05,10,31,21.50
2021,07,05,10,32,21.50
2021,07,05,10,33,21.40
2021,07,05,10,34,21.40
2021,07,05,10,35,21.50
2021,07,05,10,36,21.50
2021,07,05,10,37,21.60
2021,07,05,10,38,21.60
2021,07,05,10,39,21.60
2021,07,05,10,40,21.60
2021,07,05,10,41,21.60
2021,07,05,10,42,21.60
2021,07,05,10,43,21.60
2021,07,05,10,44,21.60
2021,07,05,10,45,21.60
2021,07,05,10,46,21.70
2021,07,05,10,47,21.60
2021,07,05,10,48,21.60
2021,07,05,10,49,21.70
2021,07,05,10,50,21.70
2021,07,05,10,51,21.70
2021,07,05,10,52,21.70
2021,07,05,10,53,21.70
2021,07,05,10,54,21.70
2021,07,05,10,55,21.70
2021,07,05,10,56,21.70
2021,07,05,10,57,21.70
2021,07,05,10,58,21.80
2021,07,05,10,59,21.80
2021,07,05,11,00,21.90
2021,07,05,11,01,21.90
2021,07,05,11,02,22.00
2021,07,05,11,03,22.00
2021,07,05,11,04,22.00
2021,07,05,11,05,22.00
2021,07,05,11,06,22.00
2021,07,05,11,07,22.00
2021,07,05,11,08,22.10
2021,07,05,11,09,22.10
2021,07,05,11,10,22.10
2021,07,05,11,11,22.20
2021,07,05,11,12,22.30
2021,07,05,11,13,22.30
2021,07,05,11,14,22.30
2021,07,05,11,15,22.40
2021,07,05,11,16,22.40
2021,07,05,11,17,22.30
2021,07,05,11,18,22.30
2021,07,05,11,19,22.30
2021,07,05,11,20,22.40
2021,07,05,11,21,22.40
2021,07,05,11,22,22.40
2021,07,05,11,23,22.40
2021,07,05,11,24,22.40
2021,07,05,11,25,22.50
2021,07,05,11,26,22.50
2021,07,05,11,27,22.60
2021,07,05,11,28,22.60
2021,07,05,11,29,22.60
2021,07,05,11,30,22.50
2021,07,05,11,31,22.50
2021,07,05,11,32,22.50
2021,07,05,11,33,22.50
2021,07,05,11,34,22.50
2021,07,05,11,35,22.50
2021,07,05,11,36,22.50
2021,07,05,11,37,22.50
2021,07,05,11,38,22.50
2021,07,05,11,39,22.50
2021,07,05,11,40,22.50
2021,07,05,11,41,22.50
2021,07,05,11,42,22.50
2021,07,05,11,43,22.60
2021,07,05,11,44,22.70
2021,07,05,11,45,22.70
2021,07,05,11,46,22.70
2021,07,05,11,47,22.70
2021,07,05,11,48,22.70
2021,07,05,11,49,22.80
2021,07,05,11,50,22.70
2021,07,05,11,51,22.70
2021,07,05,11,52,22.80
2021,07,05,11,53,22.90
2021,07,05,11,54,23.00
2021,07,05,11,55,23.20
2021,07,05,11,56,23.30
2021,07,05,11,57,23.40
2021,07,05,11,58,23.50
2021,07,05,11,59,23.50
2021,07,05,12,00,23.60
2021,07,05,12,01,23.50
2021,07,05,12,02,23.40
2021,07,05,12,03,23.50
2021,07,05,12,04,23.50
2021,07,05,12,05,23.50
2021,07,05,12,06,23.60
2021,07,05,12,07,23.60
2021,07,05,12,08,23.70
2021,07,05,12,09,23.60
2021,07,05,12,10,23.50
2021,07,05,12,11,23.30
2021,07,05,12,12,23.20
2021,07,05,12,13,23.20
2021,07,05,12,14,23.10
2021,07,05,12,15,23.10
2021,07,05,12,16,23.10
2021,07,05,12,17,23.10
2021,07,05,12,18,23.20
2021,07,05,12,19,23.20
2021,07,05,12,20,23.20
2021,07,05,12,21,23.30
2021,07,05,12,22,23.40
2021,07,05,12,23,23.40
2021,07,05,12,24,23.40
2021,07,05,12,25,23.40
2021,07,05,12,26,23.40
2021,07,05,12,27,23.50
2021,07,05,12,28,23.50
2021,07,05,12,29,23.60
2021,07,05,12,30,23.60
2021,07,05,12,31,23.70
2021,07,05,12,32,23.70
2021,07,05,12,33,23.80
2021,07,05,12,34,23.90
2021,07,05,12,35,24.00
2021,07,05,12,36,24.00
2021,07,05,12,37,24.00
2021,07,05,12,38,24.00
2021,07,05,12,39,24.00
2021,07,05,12,40,23.80
2021,07,05,12,41,23.60
2021,07,05,12,42,23.50
2021,07,05,12,43,23.40
2021,07,05,12,44,23.40
2021,07,05,12,45,23.40
2021,07,05,12,46,23.40
2021,07,05,12,47,23.40
2021,07,05,12,48,23.40
2021,07,05,12,49,23.40
2021,07,05,12,50,23.50
2021,07,05,12,51,23.50
2021,07,05,12,52,23.40
2021,07,05,12,53,23.30
2021,07,05,12,54,23.30
2021,07,05,12,55,23.30
2021,07,05,12,56,23.30
2021,07,05,12,57,23.30
2021,07,05,12,58,23.40
2021,07,05,12,59,23.50
2021,07,05,13,00,23.60
2021,07,05,13,01,23.70
2021,07,05,13,02,23.70
2021,07,05,13,03,23.70
2021,07,05,13,04,23.60
2021,07,05,13,05,23.50
2021,07,05,13,06,23.40
2021,07,05,13,07,23.40
2021,07,05,13,08,23.40
2021,07,05,13,09,23.40
2021,07,05,13,10,23.40
2021,07,05,13,11,23.50
2021,07,05,13,12,23.40
2021,07,05,13,13,23.30
2021,07,05,13,14,23.30
2021,07,05,13,15,23.30
2021,07,05,13,16,23.30
2021,07,05,13,17,23.30
2021,07,05,13,18,23.30
2021,07,05,13,19,23.40
2021,07,05,13,20,23.50
2021,07,05,13,21,23.70
2021,07,05,13,22,23.80
2021,07,05,13,23,24.00
2021,07,05,13,24,24.00
2021,07,05,13,25,24.10
2021,07,05,13,26,24.00
2021,07,05,13,27,24.00
2021,07,05,13,28,23.90
2021,07,05,13,29,23.90
2021,07,05,13,30,23.90
2021,07,05,13,31,23.90
2021,07,05,13,32,23.80
2021,07,05,13,33,23.80
2021,07,05,13,34,23.70
2021,07,05,13,35,23.60
2021,07,05,13,36,23.50
2021,07,05,13,37,23.40
2021,07,05,13,38,23.40
2021,07,05,13,39,23.30
2021,07,05,13,40,23.20
2021,07,05,13,41,23.20
2021,07,05,13,42,23.10
2021,07,05,13,43,23.20
2021,07,05,13,44,23.30
2021,07,05,13,45,23.40
2021,07,05,13,46,23.50
2021,07,05,13,47,23.60
2021,07,05,13,48,23.60
2021,07,05,13,49,23.70
2021,07,05,13,50,23.70
2021,07,05,13,51,23.70
2021,07,05,13,52,23.70
2021,07,05,13,53,23.60
2021,07,05,13,54,23.50
2021,07,05,13,55,23.50
2021,07,05,13,56,23.50
2021,07,05,13,57,23.60
2021,07,05,13,58,23.70
2021,07,05,13,59,23.70
2021,07,05,14,00,23.70
2021,07,05,14,01,23.70
2021,07,05,14,02,23.80
2021,07,05,14,03,23.80
2021,07,05,14,04,23.90
2021,07,05,14,05,23.90
2021,07,05,14,06,23.80
2021,07,05,14,07,23.80
2021,07,05,14,08,23.70
2021,07,05,14,09,23.60
2021,07,05,14,10,23.50
2021,07,05,14,11,23.40
2021,07,05,14,12,23.30
2021,07,05,14,13,23.30
2021,07,05,14,14,23.30
2021,07,05,14,15,23.40
2021,07,05,14,16,23.50
2021,07,05,14,17,23.60
2021,07,05,14,18,23.70
2021,07,05,14,19,23.70
2021,07,05,14,20,23.70
2021,07,05,14,21,23.70
2021,07,05,14,22,23.60
2021,07,05,14,23,23.60
2021,07,05,14,24,23.60
2021,07,05,14,25,23.60
2021,07,05,14,26,23.70
2021,07,05,14,27,23.70
2021,07,05,14,28,23.80
2021,07,05,14,29,23.80
2021,07,05,14,30,23.90
2021,07,05,14,31,23.90
2021,07,05,14,32,23.90
2021,07,05,14,33,23.90
2021,07,05,14,34,23.80
2021,07,05,14,35,23.60
2021,07,05,14,36,23.60
2021,07,05,14,37,23.60
2021,07,05,14,38,23.60
2021,07,05,14,39,23.60
2021,07,05,14,40,23.50
2021,07,05,14,41,23.50
2021,07,05,14,42,23.50
2021,07,05,14,43,23.50
2021,07,05,14,44,23.60
2021,07,05,14,45,23.60
2021,07,05,14,46,23.60
2021,07,05,14,47,23.70
2021,07,05,14,48,23.70
2021,07,05,14,49,23.70
2021,07,05,14,50,23.70
2021,07,05,14,51,23.60
2021,07,05,14,52,23.50
2021,07,05,14,53,23.40
2021,07,05,14,54,23.30
2021,07,05,14,55,23.30
2021,07,05,14,56,23.30
2021,07,05,14,57,23.30
2021,07,05,14,58,23.30
2021,07,05,14,59,23.30
2021,07,05,15,00,23.30
2021,07,05,15,01,23.20
2021,07,05,15,02,23.20
2021,07,05,15,03,23.30
2021,07,05,15,04,23.40
2021,07,05,15,05,23.40
2021,07,05,15,06,23.40
2021,07,05,15,07,23.40
2021,07,05,15,08,23.30
2021,07,05,15,09,23.30
2021,07,05,15,10,23.30
2021,07,05,15,11,23.40
2021,07,05,15,12,23.50
2021,07,05,15,13,23.60
2021,07,05,15,14,23.80
2021,07,05,15,15,23.90
2021,07,05,15,16,24.00
2021,07,05,15,17,24.20
2021,07,05,15,18,24.30
2021,07,05,15,19,24.30
2021,07,05,15,20,24.40
2021,07,05,15,21,24.40
2021,07,05,15,22,24.40
2021,07,05,15,23,24.40
2021,07,05,15,24,24.40
2021,07,05,15,25,24.30
2021,07,05,15,26,24.30
2021,07,05,15,27,24.20
2021,07,05,15,28,24.20
2021,07,05,15,29,24.20
2021,07,05,15,30,24.10
2021,07,05,15,31,24.10
2021,07,05,15,32,24.10
2021,07,05,15,33,24.10
2021,07,05,15,34,24.10
2021,07,05,15,35,24.10
2021,07,05,15,36,24.00
2021,07,05,15,37,23.90
2021,07,05,15,38,23.80
2021,07,05,15,39,23.70
2021,07,05,15,40,23.70
2021,07,05,15,41,23.70
2021,07,05,15,42,23.70
2021,07,05,15,43,23.60
2021,07,05,15,44,23.60
2021,07,05,15,45,23.60
2021,07,05,15,46,23.60
2021,07,05,15,47,23.50
2021,07,05,15,48,23.40
2021,07,05,15,49,23.30
2021,07,05,15,50,23.30
2021,07,05,15,51,23.20
2021,07,05,15,52,23.20
2021,07,05,15,53,23.20
2021,07,05,15,54,23.20
2021,07,05,15,55,23.30
2021,07,05,15,56,23.30
2021,07,05,15,57,23.30
2021,07,05,15,58,23.30
2021,07,05,15,59,23.30
2021,07,05,16,00,23.30
2021,07,05,16,01,23.30
2021,07,05,16,02,23.40
2021,07,05,16,03,23.40
2021,07,05,16,04,23.40
2021,07,05,16,05,23.40
2021,07,05,16,06,23.40
2021,07,05,16,07,23.40
2021,07,05,16,08,23.40
2021,07,05,16,09,23.40
2021,07,05,16,10,23.30
2021,07,05,16,11,23.20
2021,07,05,16,12,23.30
2021,07,05,16,13,23.30
2021,07,05,16,14,23.30
2021,07,05,16,15,23.30
2021,07,05,16,16,23.30
2021,07,05,16,17,23.30
2021,07,05,16,18,23.40
2021,07,05,16,19,23.40
2021,07,05,16,20,23.60
2021,07,05,16,21,23.70
2021,07,05,16,22,23.80
2021,07,05,16,23,23.80
2021,07,05,16,24,23.80
2021,07,05,16,25,23.80
2021,07,05,16,26,23.80
2021,07,05,16,27,23.90
2021,07,05,16,28,23.90
2021,07,05,16,29,24.00
2021,07,05,16,30,24.00
2021,07,05,16,31,23.90
2021,07,05,16,32,23.80
2021,07,05,16,33,23.80
2021,07,05,16,34,23.80
2021,07,05,16,35,23.80
2021,07,05,16,36,23.90
2021,07,05,16,37,23.90
2021,07,05,16,38,24.00
2021,07,05,16,39,24.10
2021,07,05,16,40,24.10
2021,07,05,16,41,24.10
2021,07,05,16,42,24.10
2021,07,05,16,43,24.10
2021,07,05,16,44,24.10
2021,07,05,16,45,24.10
2021,07,05,16,46,24.00
2021,07,05,16,47,23.90
2021,07,05,16,48,23.90
2021,07,05,16,49,23.80
2021,07,05,16,50,23.70
2021,07,05,16,51,23.70
2021,07,05,16,52,23.70
2021,07,05,16,53,23.60
2021,07,05,16,54,23.60
2021,07,05,16,55,23.60
2021,07,05,16,56,23.60
2021,07,05,16,57,23.60
2021,07,05,16,58,23.70
2021,07,05,16,59,23.70
2021,07,05,17,00,23.70
2021,07,05,17,01,23.70
2021,07,05,17,02,23.70
2021,07,05,17,03,23.80
2021,07,05,17,04,23.80
2021,07,05,17,05,23.80
2021,07,05,17,06,23.90
2021,07,05,17,07,23.90
2021,07,05,17,08,24.00
2021,07,05,17,09,24.00
2021,07,05,17,10,24.10
2021,07,05,17,11,24.10
2021,07,05,17,12,24.10
2021,07,05,17,13,24.10
2021,07,05,17,14,24.10
2021,07,05,17,15,24.20
2021,07,05,17,16,24.20
2021,07,05,17,17,24.20
2021,07,05,17,18,24.20
2021,07,05,17,19,24.20